Location: Unspecified
(0.0000°N, 0.0000°E)
Time: 03:22:45
(UTC+00:00)

Altair - Visible Passes

Search period start: 12 October 2024 00:00
Search period end: 22 October 2024 00:00
Orbit: 1322 x 7415 km, 47.5° (Epoch: 11 October)

Date Brightness Start Highest point End Pass type
(mag) Time Alt. Az. Time Alt. Az. Time Alt. Az.
12 Oct ? 01:14:41 46° SE 01:16:17 46° ESE 01:47:32 10° NE visible
12 Oct ? 04:19:38 18° WSW 04:38:03 50° NW 05:22:51 10° NNE visible
13 Oct ? 01:54:16 65° SSE 01:56:52 69° ESE 02:34:07 10° NE visible
13 Oct ? 05:00:01 10° W 05:23:12 37° NW 06:06:28 10° NNE visible
13 Oct ? 23:28:53 11° E 23:28:53 11° E 23:30:24 10° E visible
14 Oct ? 02:33:50 69° SW 02:38:10 87° NW 03:19:15 10° NE visible
15 Oct ? 00:08:25 25° E 00:08:25 25° E 00:23:27 10° ENE visible
15 Oct ? 03:13:22 52° WSW 03:20:30 66° NW 04:03:28 10° NNE visible
16 Oct ? 00:47:56 42° E 00:47:56 42° E 01:12:04 10° NE visible
16 Oct ? 03:52:52 35° W 04:04:03 49° NW 04:47:14 10° NNE visible
17 Oct ? 01:27:24 62° E 01:27:24 62° E 01:58:29 10° NE visible
17 Oct ? 04:32:20 20° W 04:49:09 36° NW 05:31:01 10° NNE visible
18 Oct ? 02:06:51 79° NNE 02:06:51 79° NNE 02:43:32 10° NE visible
18 Oct ? 05:12:45 10° W 05:36:27 26° NNW 06:15:26 10° NNE visible
18 Oct ? 23:41:19 17° E 23:41:19 17° E 23:48:27 10° ENE visible
19 Oct ? 02:46:15 64° NW 02:46:44 64° NW 03:27:44 10° NNE visible
20 Oct ? 00:20:40 31° ENE 00:20:40 31° ENE 00:36:44 10° NE visible
20 Oct ? 03:25:36 45° WNW 03:30:12 47° NW 04:11:33 10° NNE visible
21 Oct ? 01:00:00 45° ENE 01:00:00 45° ENE 01:22:56 10° NE visible
21 Oct ? 04:04:55 29° WNW 04:15:13 34° NW 04:55:26 10° NNE visible
